Regional Weather Roundup
Issued by NWS Binghamton, NY

Home | Current Version | Previous Version | Text Only | Print | Product List | Glossary On
Versions: 1 2 3 4 5 6 7 8 9 10 11 12 13 14 15 16 17 18 19 20 21 22 23 24 25 26 27 28 29 30 31 32 33 34 35 36 37 38 39 40 41 42 43 44 45 46 47 48 49 50
000
ASUS41 KBGM 201710
RWRBGM
RWRBGM
BINGHAMTON REGIONAL WEATHER ROUNDUP
NATIONAL WEATHER SERVICE BINGHAMTON NY
100 PM EDT MON OCT 20 2014

Note: "fair" indicates few or no clouds below 12,000 feet with no
significant weather and/or obstructions to visibility.

* = Station(s) that does not report precipitation, such as rain,
snow, etc, also no thunder or fog.

!NYZ009-015>018-022>025-036-037-044>046-055>057-062-201800
...CENTRAL NEW YORK...

CITY           SKY/WX    TMP DP  RH WIND       PRES   REMARKS
BINGHAMTON     CLOUDY    48  36  63 SW8       29.95F
CORTLAND       CLOUDY    48  37  66 SW10G20   29.95F
DANSVILLE      CLOUDY    52  40  63 SE7       29.89F
ELMIRA         CLOUDY    48  40  73 NE5       29.93F
ITHACA         CLOUDY    47  38  71 S8        29.95F
HAMILTON       PTSUNNY   52  36  54 SW7       29.94F
MONTICELLO     MOSUNNY   48  34  57 S7        30.00F
NORWICH        CLOUDY    50  34  53 CALM      29.96F
PENN YAN       CLOUDY    48  36  63 S9        29.91F
ROME           PTSUNNY   55  39  54 S7        29.94F
SIDNEY         CLOUDY    55  41  58 W9        29.96F
SYRACUSE       CLOUDY    55  36  48 S6        29.92F
$$

!PAZ038>040-043-044-047-048-072-201800
...NORTHEAST PENNSYLVANIA...

CITY           SKY/WX    TMP DP  RH WIND       PRES   REMARKS
HAZLETON       MOSUNNY   54  32  43 S6G17     30.03F
SCRANTON       CLOUDY    49  33  54 CALM      29.99F
TOWANDA*       MOSUNNY   54  34  47 SW10      29.96F
$$
&&
KEY
WCI = WIND CHILL INDEX
VSB = VISIBILITY
HX  = HEAT INDEX
$$



USA.gov is the U.S. government's official web portal to all federal, state and local government web resources and services.